Location: *
(46.2664°N, 0.6264°W)
Time: 13:38:11
(UTC+00:00)

Daily predictions for brighter satellites

Satellite Brightness Start Highest point End
(mag) Time Altitude Azimuth Time Altitude Azimuth Time Altitude Azimuth
Unknown 3.7 19:31:44 10° WNW 19:35:53 88° NNE 19:40:03 10° ESE
Cosmos 1733 Rocket 4.5 19:33:11 10° SE 19:36:15 19° E 19:39:18 10° NE
Unknown 3.6 19:33:23 10° WNW 19:37:33 90° SE 19:41:42 10° ESE
CENTAUR R/B 4.5 19:31:47 10° NW 19:39:11 39° WSW 19:47:02 10° S
Unknown 3.6 19:35:03 10° WNW 19:39:14 88° SSW 19:43:22 10° ESE
Aureole 2 Rocket 3.7 19:38:12 10° NNE 19:40:05 17° ENE 19:41:57 10° ESE
SJ-6B 2.8 19:36:11 10° SSE 19:40:06 85° ENE 19:44:10 10° NNW
Unknown 3.7 19:36:44 10° WNW 19:40:54 86° SW 19:45:03 10° ESE
Unknown 3.7 19:38:22 10° WNW 19:42:32 84° SSW 19:46:42 10° SE
Cosmos 1602 4.3 19:40:48 10° SSE 19:44:18 35° E 19:47:49 10° NNE
USA 267 3.8 19:38:49 10° NE 19:45:16 63° NNW 19:51:43 10° WSW
Unknown 3.8 19:42:01 10° WNW 19:46:10 72° SW 19:50:17 10° SE
Unknown 3.8 19:43:40 10° WNW 19:47:48 72° SW 19:51:51 10° SE
Unknown 3.7 19:45:08 10° WNW 19:49:17 74° SW 19:53:15 11° SE
Unknown 3.7 19:46:43 10° WNW 19:50:51 74° SW 19:54:46 11° SE
Unknown 3.8 19:50:03 10° WNW 19:54:11 71° SW 19:57:58 12° SE
ARGOS 3.2 19:49:31 10° SSE 19:54:50 71° ENE 20:00:11 10° N
Unknown 3.8 19:51:44 10° WNW 19:55:51 69° SW 19:59:34 12° SE
Cosmos 2292 Rocket 3.8 19:51:37 10° N 19:56:55 82° W 20:00:50 10° S
Shenzhou-11 Module 3.6 19:55:07 10° SSW 19:56:59 16° SSE 19:57:55 14° SE
Unknown 3.8 19:53:22 10° WNW 19:57:30 67° SW 20:01:09 13° SE
SL-08 RB Rocket 3.9 19:53:46 10° SSE 19:58:10 54° ENE 20:02:39 10° N
Unknown 3.8 19:55:02 10° WNW 19:59:09 65° SW 20:02:44 13° SE
Abrixas rocket 2.1 19:59:43 10° SW 20:02:44 54° SSE 20:05:46 10° ENE
Meteor 2-4 Rocket 4.1 19:57:51 10° N 20:02:55 40° ENE 20:07:26 12° SE
Okean 1-7 4.0 19:58:48 10° NNW 20:03:05 51° W 20:07:20 10° S
Spot 2 Rocket 4.2 19:59:19 12° SE 20:03:41 38° ENE 20:08:21 10° N
Cosmos 2221 Rocket 3.5 19:59:23 10° N 20:03:49 79° E 20:08:13 10° SSE
GP-B 4.5 20:01:14 10° NNE 20:04:38 21° E 20:06:53 15° ESE
SPOT 3 Rocket 4.1 19:59:38 10° S 20:04:46 60° WSW 20:09:54 10° NNW
Unknown 4.0 20:01:44 10° WNW 20:05:49 58° SW 20:09:09 15° SE
Unknown 4.0 20:03:23 10° WNW 20:07:28 57° SW 20:10:45 15° SE
Unknown 4.0 20:05:02 10° WNW 20:09:06 55° SW 20:12:20 15° SE
ASTEX 1 4.1 20:05:28 10° NNE 20:09:57 33° E 20:13:49 13° SSE
Unknown 4.1 20:06:42 10° WNW 20:10:45 53° SW 20:13:55 16° SE
Unknown 4.1 20:08:23 10° WNW 20:12:26 52° SW 20:15:32 16° SE
Cosmos 44 3.7 20:10:22 10° NW 20:14:44 52° WSW 20:18:47 11° SSE
Unknown 4.2 20:11:44 10° WNW 20:15:44 49° SW 20:18:44 17° SSE
Resurs 1-3 3.6 20:11:46 10° SSE 20:16:10 85° WSW 20:20:35 10° NNW
Cosmos 1745 Rocket 4.2 20:10:16 10° N 20:16:16 51° ENE 20:21:28 14° SSE
Starlink (trailer) 4.2 20:13:22 10° WNW 20:17:22 48° SW 20:20:18 17° SSE
CZ-2C R/B 2.9 20:14:41 12° SSE 20:19:00 65° ENE 20:23:46 10° N
Unknown 4.3 20:15:04 10° WNW 20:19:03 46° SW 20:21:55 17° SSE
SL-24 R/B 4.4 20:14:22 10° SSE 20:19:05 61° E 20:23:55 10° N
USA 234 3.9 20:13:53 10° SSE 20:20:13 50° SW 20:26:34 10° WNW
Unknown 4.3 20:16:42 10° WNW 20:20:40 45° SW 20:23:29 18° SSE
Cosmos 2112 Rocket 4.3 20:19:23 10° NNW 20:24:31 51° ENE 20:27:56 20° SE
Meteor 1-11 Rocket 4.3 20:21:41 11° SSE 20:26:56 41° E 20:32:28 10° NNE
Okean 3 3.4 20:25:02 10° N 20:29:13 90° W 20:32:50 14° S
SL-24 R/B 4.2 20:26:41 14° SSE 20:30:50 81° ENE 20:35:16 10° NNW
Cosmos 1908 Rocket 4.4 20:32:26 24° SE 20:34:06 31° E 20:38:03 10° NNE
Terra 3.6 20:34:26 15° E 20:36:08 18° ENE 20:39:15 10° NNE
Resurs 01 Rocket 2.2 20:40:23 11° S 20:44:32 56° W 20:48:54 10° NNW
SJ 16-02 2.3 20:45:02 27° ESE 20:45:12 27° E 20:48:56 10° NE
Cosmos 1515 3.6 20:42:25 10° N 20:46:15 88° E 20:48:12 28° S
Cosmos 2082 Rocket 3.6 20:46:54 19° E 20:46:54 19° E 20:50:08 10° ENE
IGS 5A 4.4 20:46:42 27° E 20:47:47 31° ENE 20:51:27 10° N
Cosmos 1833 Rocket 3.5 20:47:16 26° ESE 20:48:11 27° ESE 20:52:52 10° NE
GENESIS II 4.4 20:45:01 10° SW 20:49:01 76° NW 20:53:07 10° NE
H-2A R/B 3.3 20:44:40 10° SSW 20:49:21 37° W 20:53:58 10° NNW
Cosmos 923 Rocket 4.3 20:46:00 10° NNW 20:51:18 66° WSW 20:55:02 19° S
SPOT 5 3.7 20:50:43 26° E 20:51:49 29° ENE 20:55:34 10° N
Aureole 3 Rocket 2.5 20:50:43 31° SSE 20:52:17 61° E 20:55:28 10° NNE
Cosmos 1656 3.9 20:47:36 10° NNW 20:53:15 60° ENE 20:55:58 30° SE
Thor Agena Rocket 4.4 20:49:40 10° NE 20:54:08 29° E 20:54:46 28° ESE
MetOp-B 4.1 20:50:44 22° SSE 20:54:18 88° ENE 20:59:41 10° NNW
Meteor 1-5 Rocket 4.2 20:49:11 10° S 20:54:56 73° E 21:00:32 10° NNE
Cosmos 1898 Rocket 3.6 20:52:06 16° S 20:56:13 54° ESE 21:01:20 10° NNE
Cosmos 1697 Rocket 3.3 20:54:45 10° NNW 21:00:09 43° NE 21:02:30 29° ESE
EXPRESS MD2 2.4 20:56:53 10° WNW 21:00:59 85° NNE 21:01:15 71° E
Cosmos 1809 Rocket 4.4 20:56:38 10° N 21:02:51 88° W 21:07:03 22° S
Cosmos 1680 Rocket 3.7 20:58:08 10° NNW 21:03:22 67° WSW 21:06:18 26° S
Cosmos 44 Rocket 3.3 20:58:36 10° NW 21:03:23 74° WSW 21:05:15 36° SSE
BREEZE M DEB (TANK) 3.6 21:02:13 10° SW 21:07:36 15° ENE 21:08:58 10° ENE
Cosmos 1666 3.8 21:05:46 28° ENE 21:05:46 28° ENE 21:08:30 10° NNE
Meteor 1-13 Rocket 4.3 20:59:30 10° NNW 21:05:09 78° W 21:08:55 23° S
USA 229 DEB 4.5 21:01:26 10° NNW 21:08:18 45° NE 21:12:34 24° E
Meteor 2-14 Rocket 4.4 21:02:38 10° N 21:08:48 82° E 21:12:10 29° SSE
CZ-4B DEB 4.5 21:10:22 56° SSW 21:10:58 74° WSW 21:14:23 10° NNW
Geosat 4.0 21:09:13 34° SSE 21:11:26 79° WSW 21:16:30 10° NNW
USA 245 3.9 21:09:57 36° SSE 21:11:56 89° WSW 21:17:31 10° NNW
Cosmos 1378 Rocket 3.6 21:08:09 10° NNW 21:12:34 76° W 21:14:21 36° S
Cosmos 1782 Rocket 3.9 21:12:17 43° ESE 21:12:34 44° E 21:16:47 10° NNE
ADEOS Rocket 3.8 21:07:08 10° N 21:12:50 52° WNW 21:19:05 10° SW
Meteor 2-21 4.5 21:06:40 10° N 21:12:52 83° W 21:16:40 25° S
Cosmos 1733 Rocket 4.2 21:09:38 10° SSW 21:13:43 41° WNW 21:17:51 10° N
Aureole 2 Rocket 4.2 21:12:19 10° WNW 21:14:11 17° WSW 21:14:40 16° WSW
Meteor 1-23 Rocket 4.2 21:08:54 10° N 21:14:39 71° ENE 21:16:53 38° SSE
CZ-2C R/B 2.5 21:09:44 10° NNE 21:15:01 78° ESE 21:18:17 24° S
Cosmos 883 Rocket 4.4 21:12:23 20° S 21:16:57 81° E 21:23:20 10° N
Cosmos 1674 Rocket 4.4 21:13:30 10° NNW 21:17:41 46° W 21:20:02 23° SSW
COSMOS 2406 3.2 21:12:41 10° SSW 21:18:23 82° WNW 21:24:08 10° NNE
ERS-1 Rocket 2.9 21:18:32 43° SSE 21:20:10 76° ENE 21:25:12 10° N
Cosmos 2098 Rocket 3.3 21:17:16 10° N 21:21:40 84° W 21:23:49 37° S
Cosmos 1980 Rocket 3.0 21:17:22 10° NNW 21:22:34 37° NE 21:24:16 30° E
FALCON 9 R/B 4.2 21:02:12 10° SW 21:24:53 36° S 21:27:58 31° SE
Cosmos 1536 2.9 21:24:02 41° SSW 21:25:20 74° W 21:29:26 10° N
Cosmos 1346 Rocket 3.4 21:26:49 42° ENE 21:26:49 42° ENE 21:29:47 10° NNE
Cosmos 2369 3.6 21:29:37 10° NNW 21:35:20 84° ENE 21:36:50 51° SSE
Iridium 2 4.4 21:35:54 39° SW 21:36:46 48° W 21:40:26 10° N
Cosmos 1975 Rocket 2.9 21:33:24 10° N 21:37:51 79° E 21:38:10 74° SE
Abrixas rocket 3.6 21:35:40 10° W 21:37:41 35° WNW 21:37:41 35° WNW
GP-B 4.3 21:37:57 10° NNW 21:42:07 40° W 21:44:20 23° SW
Cosmos 1709 Rocket 4.1 21:36:17 10° NNW 21:42:23 69° W 21:45:06 34° SSW
Landsat 7 4.0 21:41:52 49° SSW 21:43:00 65° WSW 21:47:45 10° NNW
SPOT 1/Viking Rocket 3.7 21:42:21 45° SSW 21:43:55 68° WSW 21:49:09 10° NNW
Cosmos 1937 Rocket 3.5 21:42:16 30° SSW 21:44:56 82° WNW 21:50:18 10° NNE
Cosmos 990 Rocket 4.4 21:44:29 16° SW 21:48:34 62° WNW 21:53:45 10° NNE
Cosmos 2074 Rocket 4.1 21:44:09 10° N 21:50:23 59° ENE 21:51:37 50° ESE
Okean 2 3.8 21:47:36 10° N 21:51:03 52° NE 21:51:03 52° NE
Cosmos 2315 Rocket 4.2 21:48:47 28° SSW 21:52:24 72° W 21:58:46 10° N
Cosmos 2184 Rocket 4.0 21:48:48 10° N 21:54:56 61° ENE 21:55:58 53° ESE
Cosmos 2150 Rocket 4.1 21:59:39 58° E 21:59:39 58° E 22:04:18 10° NNE
CARTOSAT-1 3.7 21:59:10 63° WSW 21:59:13 63° WSW 22:03:31 10° NNW
Uosat 12 SS-18 rocket 4.2 21:54:36 10° NW 22:00:18 84° NE 22:00:35 78° ESE
USA 32 4.1 21:56:12 10° N 22:01:25 70° W 22:02:21 57° SSW
Cosmos 372 Rocket 4.3 22:03:13 49° ENE 22:03:13 49° ENE 22:07:29 10° NNE
Cosmos 2298 Rocket 3.9 22:02:35 73° ESE 22:02:38 73° ESE 22:07:58 10° NNE
NOSS 3-1 (C) 4.1 21:55:24 10° NW 22:02:51 72° NE 22:05:46 44° ESE
Cosmos 1340 3.5 22:05:00 48° NNW 22:05:00 48° NNW 22:07:57 10° N
Cosmos 2360 4.0 22:02:50 10° NNW 22:08:35 88° ENE 22:09:09 73° SSE
Meteor 2-8 Rocket 4.4 22:08:12 47° SSW 22:10:03 76° W 22:16:08 10° N
MOS 1 Rocket 3.6 22:04:58 10° N 22:10:22 83° WNW 22:11:13 64° SSW
Cosmos 2322 Rocket 3.5 22:05:50 10° N 22:10:36 27° NE 22:11:46 25° ENE
Terra 1.9 22:13:19 66° WSW 22:13:23 66° WSW 22:18:08 10° NNW
Cosmos 468 4.4 22:08:45 10° NNW 22:14:00 73° ENE 22:14:02 73° ENE
Helios 1A 4.4 22:16:09 29° NE 22:16:09 29° NE 22:18:55 10° N
Okean 2 Rocket 3.5 22:16:42 60° N 22:16:42 60° N 22:20:20 10° N
Cosmos 1743 4.0 22:20:32 38° N 22:20:32 38° N 22:23:00 10° N
SJ 16-02 2.9 22:21:57 24° WSW 22:23:40 33° WNW 22:27:42 10° N
Mayak 0.5 22:23:00 10° NNE 22:25:01 25° NE 22:25:01 25° NE
Cosmos 1536 Rocket 4.2 22:22:46 10° N 22:26:14 53° N 22:26:14 53° N
Cosmos 2082 Rocket 2.3 22:28:40 56° WSW 22:29:46 71° WNW 22:35:27 10° NNE
SPOT 5 4.1 22:29:58 29° W 22:29:58 29° W 22:33:41 10° NW
CZ-4C R/B 4.0 22:33:51 19° ENE 22:33:51 19° ENE 22:35:51 10° NE
Cosmos 1833 Rocket 3.4 22:28:53 26° WSW 22:31:49 51° WNW 22:37:19 10° NNE
Cosmos 2278 4.2 22:26:43 10° NW 22:32:07 47° WSW 22:32:23 47° WSW
Cosmos 1975 4.1 22:33:48 38° N 22:33:48 38° N 22:36:25 10° N
Meteor 2-9 Rocket 4.3 22:37:24 70° ENE 22:37:24 70° ENE 22:42:59 10° NNE
Cosmos 1048 Rocket 4.1 22:33:24 10° NNW 22:38:02 71° NW 22:38:02 71° NW
SL-16 R/B 2.7 22:35:37 10° NNW 22:41:06 47° ENE 22:41:15 47° ENE
ALOS 2 4.2 22:42:34 27° NE 22:42:34 27° NE 22:45:21 10° N
Spot 4 4.3 22:42:47 57° NNE 22:42:47 57° NNE 22:46:44 10° N
Cosmos 1025 Rocket 4.0 22:38:13 10° N 22:41:20 46° NNW 22:41:20 46° NNW
IRAS Rocket 4.2 22:42:51 85° W 22:42:51 85° W 22:48:26 10° NNW
Cosmos 1697 Rocket 3.8 22:38:59 10° NW 22:43:59 33° WSW 22:44:14 33° WSW
Cosmos 1867 3.8 22:38:38 10° NNW 22:43:55 62° NE 22:43:55 62° NE
Cosmos 1610 Rocket 4.3 22:38:24 10° N 22:44:34 85° W 22:44:51 81° SSW
Meteor 1-21 4.2 22:39:25 10° NNW 22:44:54 82° WNW 22:44:54 82° WNW
Cosmos 1269 Rocket 4.3 22:46:36 10° NNW 22:51:16 61° NNE 22:51:16 61° NNE
USA 229 DEB 4.1 22:52:27 10° NW 22:59:30 55° WSW 22:59:59 54° SW
USA 229 4.0 22:52:33 10° NW 22:59:36 55° WSW 23:00:05 54° SW
Cosmos 1125 Rocket 3.9 23:01:59 61° N 23:01:59 61° N 23:06:23 10° NNE
Cosmos 2360 Rocket 3.4 22:56:19 10° NNW 23:01:21 32° NE 23:01:51 32° ENE
NOSS 3-1 (A) 3.9 22:55:29 10° NW 23:03:04 82° SW 23:04:17 68° SSE
Cosmos 1980 Rocket 3.1 23:01:23 10° NW 23:06:01 38° W 23:06:01 38° W
Cosmos 2219 Rocket 4.5 23:04:52 10° N 23:08:16 16° NE 23:10:57 12° ENE
USA 267 4.5 23:03:50 10° ENE 23:09:44 38° N 23:15:39 10° NW
Cosmos 962 Rocket 4.4 23:09:20 10° N 23:15:16 81° NW 23:15:16 81° NW
Cosmos 2154 Rocket 4.4 23:13:36 10° NNW 23:19:39 52° W 23:19:47 52° W
Cosmos 2218 Rocket 4.2 23:13:38 10° N 23:19:48 61° ENE 23:19:48 61° ENE
Meteor 2-17 Rocket 4.5 23:21:18 10° N 23:27:03 76° NNE 23:27:03 76° NNE
Cosmos 2251 Rocket 4.3 23:33:03 10° NNW 23:37:31 47° NE 23:37:31 47° NE
Lacrosse 4 Rocket 3.6 23:42:52 10° N 23:45:17 23° NNE 23:45:17 23° NNE
Helios 1B rocket 4.4 23:42:18 10° N 23:44:20 28° N 23:44:20 28° N
Cosmos 2333 Rocket 3.7 23:44:54 10° N 23:49:46 28° NE 23:50:58 26° ENE
